Date String (YYYY-MM-DD hh:mm:ss) UTC,Instrument flags,Ambient pressure (hPa),Sample flow (lpm),Bypass flow (lpm),Sample temperature (°C),Ambient temperature (°C),ASC tube jacket temperature (°C),LED temperature (°C),Box temperature (°C),Sample RH (%),Span deviation,Mass concentration (μg/m³),Mass concentration (μg/m³),Mass concentration (μg/m³)
DateTimeUTC,F1_M11,P_M11,Q1_M11,Q2_M11,T1_M11,T2_M11,T3_M11,T4_M11,T5_M11,U1_M11,ZSPAN_M11,X0_M11,X2_M11,X1_M11
2021-11-03 17:00:00,,0833.3,5.00,0.00,25.6,24.9,00.0,34.5,27.5,22.6,0000.0,0008.76,0004.28,0004.08
2021-11-03 17:01:00,,0833.3,5.00,0.00,25.6,24.9,00.0,34.5,27.5,22.2,0000.0,0008.36,0004.26,0004.07
2021-11-03 17:02:00,,0833.3,5.01,0.00,25.6,24.9,00.0,34.5,27.6,22.6,0000.0,0008.28,0004.24,0004.04
2021-11-03 17:03:00,,0833.3,5.01,0.00,25.7,24.9,00.0,34.5,27.6,22.4,0000.0,0008.47,0004.21,0004.00
2021-11-03 17:04:00,,0833.3,5.00,0.00,25.7,25.0,00.0,34.6,27.6,22.9,0000.0,0008.26,0004.19,0003.98
2021-11-03 17:05:00,,0833.4,4.98,0.00,25.7,25.0,00.0,34.6,27.6,22.5,0000.0,0007.98,0004.17,0003.97
2021-11-03 17:06:00,,0833.3,5.00,0.00,25.7,25.0,00.0,34.6,27.7,22.2,0000.0,0007.98,0004.18,0003.96
2021-11-03 17:07:00,,0833.3,5.00,0.00,25.7,25.0,00.0,34.6,27.7,22.1,0000.0,0007.97,0004.14,0003.92
2021-11-03 17:08:00,,0833.3,5.00,0.00,25.8,25.0,00.0,34.6,27.7,22.4,0000.0,0007.37,0004.10,0003.89
2021-11-03 17:09:00,,0833.3,4.99,0.00,25.8,25.0,00.0,34.6,27.7,22.3,0000.0,0006.74,0004.03,0003.86
2021-11-03 17:10:00,,0833.3,5.00,0.00,25.8,25.1,00.0,34.7,27.7,22.2,0000.0,0005.95,0003.98,0003.85
2021-11-03 17:11:00,,0833.3,5.00,0.00,25.8,25.1,00.0,34.7,27.8,22.0,0000.0,0005.79,0003.95,0003.83
2021-11-03 17:12:00,,0833.3,4.99,0.00,25.8,25.1,00.0,34.7,27.8,22.0,0000.0,0005.75,0003.93,0003.82
2021-11-03 17:13:00,,0833.3,5.01,0.00,25.9,25.1,00.0,34.7,27.8,22.0,0000.0,0005.37,0003.94,0003.83
2021-11-03 17:14:00,,0833.3,5.00,0.00,25.9,25.1,00.0,34.7,27.8,22.7,0000.0,0005.12,0003.97,0003.85
2021-11-03 17:15:00,,0833.3,5.00,0.00,25.9,25.2,00.0,34.8,27.9,22.3,0000.0,0005.14,0004.00,0003.89
2021-11-03 17:16:00,,0833.3,5.01,0.00,25.9,25.2,00.0,34.8,27.9,22.5,0000.0,0005.27,0004.05,0003.94
2021-11-03 17:17:00,,0833.3,4.99,0.00,25.9,25.2,00.0,34.8,27.9,22.0,0000.0,0005.33,0004.09,0003.98
2021-11-03 17:18:00,,0833.3,5.00,0.00,26.0,25.2,00.0,34.8,27.9,22.2,0000.0,0005.57,0004.16,0004.01
2021-11-03 17:19:00,,0833.3,5.01,0.00,26.0,25.2,00.0,34.8,27.9,22.1,0000.0,0005.79,0004.21,0004.02
2021-11-03 17:20:00,,0833.3,5.01,0.00,26.0,25.2,00.0,34.9,27.9,22.4,0000.0,0005.96,0004.25,0004.05
2021-11-03 17:21:00,,0833.3,4.98,0.00,26.0,25.2,00.0,34.9,27.9,22.1,0000.0,0006.17,0004.32,0004.10
2021-11-03 17:22:00,,0833.2,4.99,0.00,26.0,25.2,00.0,34.9,27.9,22.0,0000.0,0006.41,0004.41,0004.18
2021-11-03 17:23:00,,0833.1,5.00,0.00,26.0,25.2,00.0,34.9,27.9,22.2,0000.0,0006.66,0004.51,0004.25
2021-11-03 17:24:00,,0833.2,5.00,0.00,26.0,25.3,00.0,34.9,27.9,22.5,0000.0,0006.94,0004.59,0004.32
2021-11-03 17:25:00,,0833.1,5.00,0.00,26.0,25.3,00.0,34.9,27.9,23.0,0000.0,0007.17,0004.66,0004.37
2021-11-03 17:26:00,,0833.2,4.99,0.00,26.1,25.3,00.0,34.9,28.0,22.5,0000.0,0007.37,0004.72,0004.41
2021-11-03 17:27:00,,0833.1,5.00,0.00,26.1,25.3,00.0,35.0,28.0,22.4,0000.0,0007.44,0004.75,0004.44
2021-11-03 17:28:00,,0833.1,5.00,0.00,26.1,25.3,00.0,35.0,28.0,22.8,0000.0,0007.51,0004.80,0004.49
2021-11-03 17:29:00,,0833.2,5.01,0.00,26.1,25.4,00.0,35.0,28.0,22.7,-000.2,0007.56,0004.87,0004.57
2021-11-03 17:30:00,,0833.1,4.99,0.00,26.1,25.4,00.0,35.0,28.1,22.5,0000.0,0007.56,0004.90,0004.63
2021-11-03 17:31:00,,0833.2,5.01,0.00,26.1,25.4,00.0,35.0,28.0,22.9,-000.0,0007.60,0004.97,0004.71
2021-11-03 17:32:00,,0833.1,5.01,0.00,26.1,25.4,00.0,35.0,28.1,22.9,0000.0,0007.56,0004.98,0004.73
2021-11-03 17:33:00,,0833.1,5.00,0.00,26.2,25.4,00.0,35.1,28.1,22.5,0000.0,0007.55,0004.97,0004.73
2021-11-03 17:34:00,,0833.1,4.99,0.00,26.2,25.5,00.0,35.1,28.1,22.2,0000.0,0007.52,0004.95,0004.72
2021-11-03 17:35:00,,0833.1,5.00,0.00,26.2,25.5,00.0,35.1,28.1,22.0,0000.0,0007.44,0004.92,0004.71
2021-11-03 17:36:00,,0833.1,5.00,0.00,26.2,25.5,00.0,35.1,28.1,22.0,0000.0,0007.24,0004.87,0004.69
2021-11-03 17:37:00,,0833.1,5.01,0.00,26.2,25.5,00.0,35.1,28.1,22.4,0000.0,0006.99,0004.81,0004.66
2021-11-03 17:38:00,,0833.1,4.99,0.00,26.2,25.5,00.0,35.1,28.1,22.1,0000.0,0006.75,0004.75,0004.61
2021-11-03 17:39:00,,0833.1,5.00,0.00,26.3,25.5,00.0,35.1,28.2,21.6,0000.0,0006.48,0004.63,0004.52
2021-11-03 17:40:00,,0833.0,5.00,0.00,26.3,25.5,00.0,35.2,28.2,21.9,0000.0,0006.18,0004.50,0004.40
2021-11-03 17:41:00,,0833.0,4.99,0.00,26.3,25.5,00.0,35.2,28.2,21.5,0000.0,0005.86,0004.39,0004.29
2021-11-03 17:42:00,,0833.0,5.00,0.00,26.3,25.5,00.0,35.2,28.2,21.6,0000.0,0005.61,0004.28,0004.18
2021-11-03 17:43:00,,0833.0,5.01,0.00,26.3,25.5,00.0,35.2,28.2,21.8,0000.0,0005.56,0004.23,0004.11
2021-11-03 17:44:00,,0833.1,4.99,0.00,26.3,25.5,00.0,35.2,28.2,21.7,0000.0,0005.43,0004.18,0004.07
2021-11-03 17:45:00,,0833.0,5.00,0.00,26.3,25.6,00.0,35.2,28.3,21.6,0000.0,0005.39,0004.16,0004.04
2021-11-03 17:46:00,,0833.0,5.01,0.00,26.3,25.6,00.0,35.3,28.3,21.7,0000.0,0005.33,0004.12,0003.99
2021-11-03 17:47:00,,0833.1,4.99,0.00,26.3,25.6,00.0,35.3,28.2,21.1,0000.0,0005.42,0004.09,0003.95
2021-11-03 17:48:00,,0833.0,5.01,0.00,26.4,25.6,00.0,35.3,28.2,20.6,0000.0,0005.38,0004.04,0003.89
2021-11-03 17:49:00,,0833.0,4.99,0.00,26.4,25.6,00.0,35.3,28.2,20.8,0000.0,0005.35,0004.02,0003.85
2021-11-03 17:50:00,,0833.0,5.01,0.00,26.4,25.6,00.0,35.3,28.3,20.9,0000.0,0005.41,0004.03,0003.85
2021-11-03 17:51:00,,0832.9,5.01,0.00,26.4,25.6,00.0,35.3,28.3,21.0,0000.0,0005.41,0004.03,0003.84
2021-11-03 17:52:00,,0832.9,4.99,0.00,26.4,25.6,00.0,35.3,28.3,21.2,0000.0,0005.43,0004.03,0003.84
2021-11-03 17:53:00,,0832.9,5.00,0.00,26.4,25.7,00.0,35.3,28.3,21.2,0000.0,0005.40,0004.03,0003.85
2021-11-03 17:54:00,,0832.8,5.01,0.00,26.4,25.7,00.0,35.3,28.3,21.0,0000.0,0005.42,0004.03,0003.85
2021-11-03 17:55:00,,0832.8,4.99,0.00,26.4,25.7,00.0,35.3,28.3,21.4,0000.0,0005.40,0004.00,0003.83
2021-11-03 17:56:00,,0832.9,4.99,0.00,26.4,25.7,00.0,35.4,28.3,21.5,0000.0,0005.32,0003.97,0003.80
2021-11-03 17:57:00,,0832.8,5.01,0.00,26.5,25.7,00.0,35.4,28.3,21.3,0000.0,0005.28,0003.95,0003.78
2021-11-03 17:58:00,,0832.8,5.00,0.00,26.5,25.7,00.0,35.4,28.3,20.7,0000.0,0005.12,0003.93,0003.77
2021-11-03 17:59:00,,0832.9,4.99,0.00,26.5,25.7,00.0,35.4,28.3,21.3,0000.0,0005.14,0003.95,0003.78
